Location: Dürabuch
(48.2640°N, 11.2185°E)
Time: 09:54:01
(UTC+00:00)

SL-16 R/B - Pass Details

Date: 23 May 2024
Orbit: 985 x 1007 km, 99.7° (Epoch: 15 June)

Event Time Altitude Azimuth Distance (km) Brightness Sun altitude
Rises 01:47:18 0° 164° (SSE) 3,719 5.2 -12.8°
Reaches altitude 10° 01:49:46 10° 165° (SSE) 2,775 4.5 -12.6°
Maximum altitude 01:56:02 84° 254° (WSW) 1,019 2.6 -11.9°
Drops below altitude 10° 02:02:21 10° 343° (NNW) 2,793 5.4 -11.3°
Sets 02:04:51 0° 344° (NNW) 3,746 6.1 -11.0°
